Meteo Giornale » Osservazioni meteo Gran Bretagna » Belfast-Harbour

ore: 16:20 - Osservazioni Meteo Belfast-Harbour
Lat. 54° 36' N Lon. 5° 53' W Alt. 5 metri s.l.m.

coperto_pioggia Europe/London

19 °C

Pioggia Debole

Temp. 24 Ore

14 °C

20 °C

Ovest

16.7 Km/h

Dew point 15 °C

Umidità 77 %

Visibilità  10 Km

Il sole sorge alle ore 07:11

Il sole tramonta alle ore 19:19

Data e Ora Cielo e Fenomeni T °C DP °C Um. % Pres. hPa Vis. km Vento km/h
Oggi h: 16:20 coperto_pioggia Pioggia Debole 19 15 77 1011 10 O 16.7
Oggi h: 15:50 molto_nuvoloso Molto Nuvoloso 20 15 72 1011 10 O 20.3
Oggi h: 15:20 coperto Coperto 19 16 82 1011 10 O 18.5
Oggi h: 14:50 coperto Coperto 19 15 77 1011 10 O/SO 22.2
Oggi h: 13:50 coperto Coperto 19 16 82 1011 10 O/SO 18.5
Oggi h: 13:20 coperto_pioggia Pioggia Debole 18 16 88 1011 4 O/SO 14.8
Oggi h: 12:50 coperto_pioggia Pioggia Debole 18 16 88 1011 10 O 20.3
Oggi h: 12:20 coperto_pioggia Pioggia Debole 18 16 88 1011 10 O/SO 16.7
Oggi h: 11:50 coperto_pioggia Pioggia Debole 18 16 88 1011 10 O/SO 14.8
Oggi h: 11:20 coperto Coperto 18 16 88 1011 10 SO 14.8
Oggi h: 10:50 coperto Coperto 18 16 88 1011 10 O/SO 16.7
Oggi h: 10:20 coperto Coperto 18 16 88 1010 10 O/SO 16.7
Oggi h: 09:50 coperto Coperto 18 16 88 1011 10 O/SO 22.2
Oggi h: 09:20 coperto Coperto 18 16 88 1010 10 SO 18.5
Oggi h: 08:20 coperto Coperto 17 16 93 1011 10 O/SO 16.7
Oggi h: 07:50 coperto Coperto 17 15 88 1011 10 O/SO 20.3
Oggi h: 07:20 coperto Coperto 17 15 88 1011 10 SO 16.7
Oggi h: 06:50 coperto Coperto 16 15 93 1011 10 S/SO 18.5
Oggi h: 06:20 coperto Coperto 16 15 93 1011 10 S/SO 18.5
Oggi h: 05:20 coperto_pioggia Pioggia Debole 15 14 93 1011 10 S/SO 24
Oggi h: 04:50 nuvoloso_piovaschi Debole Rovescio di Pioggia 14 13 93 1011 10 SO 24
Oggi h: 04:20 coperto_pioggia Pioggia Debole 14 13 93 1012 10 SO 20.3
Oggi h: 03:50 nuvoloso Nuvoloso 14 12 87 1012 10 SO 25.9
Oggi h: 03:20 poco_nuvoloso Poco Nuvoloso 14 12 87 1012 10 SO 24
Oggi h: 02:50 sereno Sereno 14 12 87 1013 10 SO 22.2
Oggi h: 02:20 coperto_pioggia Pioggia Debole 14 12 87 1013 10 SO 22.2
Oggi h: 01:50 coperto_pioggia Pioggia Debole 14 11 82 1013 10 SO 22.2
Oggi h: 01:20 coperto Coperto 15 11 76 1014 10 SO 16.7
Oggi h: 00:50 sereno Sereno 14 11 82 1014 10 SO 16.7
Oggi h: 00:20 sereno Sereno 15 11 76 1014 10 SO 14.8
Ieri h: 23:50 poco_nuvoloso Poco Nuvoloso 15 12 82 1015 10 SO 16.7
Ieri h: 22:50 sereno Sereno 14 12 87 1016 10 S 9.3
Ieri h: 22:20 nuvoloso Nuvoloso 14 12 87 1016 10 S 9.3
Ieri h: 21:20 nuvoloso Nuvoloso 14 12 87 1016 10 S/SO 11.1
Ieri h: 20:50 coperto Coperto 15 12 82 1017 10 S 11.1
Ieri h: 20:20 coperto Coperto 15 13 87 1017 10 S 11.1
Ieri h: 19:50 coperto Coperto 16 13 82 1017 10 S/SO 9.3
Ieri h: 19:20 coperto Coperto 16 12 77 1017 10 S/SO 13
Ieri h: 18:50 coperto Coperto 16 12 77 1017 10 SO 11.1
Ieri h: 18:20 coperto Coperto 16 12 77 1017 10 O/SO 16.7
Ieri h: 17:50 coperto Coperto 15 13 87 1017 10 O/SO 14.8
Ieri h: 17:20 coperto Coperto 16 13 82 1017 10 O/SO 16.7
Ieri h: 16:50 molto_nuvoloso Molto Nuvoloso 16 13 82 1017 10 O/SO 20.3